Location: Buckeye Ditch
(40.9104°N, 122.9517°W)
Time: 20:06:00
(UTC+00:00)

Cosmos 1048 Rocket - Visible Passes

Search period start: 12 July 2024 00:00
Search period end: 22 July 2024 00:00
Orbit: 741 x 789 km, 74.0° (Epoch: 12 July)

Date Brightness Start Highest point End Pass type
(mag) Time Alt. Az. Time Alt. Az. Time Alt. Az.
12 Jul 4.9 05:17:10 10° N 05:22:05 36° ENE 05:24:53 22° ESE visible
12 Jul 5.4 06:59:24 10° NW 07:03:55 28° W 07:05:05 26° WSW visible
13 Jul 5.6 04:39:42 10° N 04:43:50 22° ENE 04:47:40 11° ESE visible
13 Jul 4.6 06:20:58 10° NNW 06:26:06 50° WSW 06:27:52 35° SSW visible
14 Jul 4.0 05:42:48 10° NNW 05:48:11 87° WSW 05:50:41 33° SSE visible
15 Jul 4.3 05:04:53 10° N 05:10:09 55° ENE 05:13:32 22° SE visible
15 Jul 6.1 06:48:05 10° NW 06:51:39 18° W 06:53:44 15° WSW visible
16 Jul 5.0 04:27:11 10° N 04:32:00 33° ENE 04:36:25 12° SE visible
16 Jul 5.4 06:09:13 10° NW 06:13:55 32° W 06:16:38 20° SSW visible
17 Jul 4.6 05:30:51 10° NNW 05:36:05 55° WSW 05:39:33 21° S visible
18 Jul 4.0 04:52:45 10° NNW 04:58:08 85° ENE 05:02:31 16° SSE visible
18 Jul 6.6 06:37:50 10° WNW 06:39:18 11° W 06:40:45 10° WSW visible
19 Jul 4.4 04:14:52 10° N 04:20:05 50° ENE 04:25:15 10° SE visible
19 Jul 6.1 05:57:48 10° NW 06:01:39 20° W 06:05:29 10° SW visible
20 Jul 5.4 05:19:04 10° NW 05:23:53 35° W 05:28:42 10° SSW visible
21 Jul 4.5 04:40:44 10° NNW 04:46:01 62° WSW 04:51:18 10° S visible
